FLOCK 3P-57 (41978 NORAD) Tracking and Keplerian Element Data

This shows tracking and keplerian element data for the satellite.

Feedback or suggestion? Click here.




ElementValue
Catalog41978
NameFLOCK 3P-57
Epoch Orbit5521
Epoch Day45.17614858
Epoch Year2018
RAAN110.7062
Inclination97.4659
Eccentricity0.0009628
Argument of Perigee70.144
Mean Anonmoly290.0834
Mean Motion15.239081
Decay Rate1.825E-05
L11 41978U 17008AG 18045.17614858 .00001825 00000-0 78485-4 0 9995
L22 41978 97.4659 110.7062 0009628 70.1440 290.0834 15.23908100 55217

Live tracking and technical data element details for FLOCK 3P-57 (NORAD 41978). FLOCK 3P-57 can be tracked NOW for your location showing map with azimuth and elevation plus other details from your city location.

Track the satellite on the map from your city or location and see movement details for azimuth, elevation, latitude, longitude, range, height, and movement on the map or in text.







IsCatalogInMostPopularTable: catalog: 41978, numindb: 131
Update: records affected: 1



GetName: 41978 FLOCK 3P-57

Hit Count: updated at: Fri, 16 Nov 2018 03:46:12 GMT